Terminal Aerodrome Forecast
Issued by NWS Chicago, IL

Home | Current Version | Previous Version | Text Only | Print | Product List | Glossary Off
Versions: 1 2 3 4 5 6 7 8 9 10 11 12 13 14 15 16 17 18 19 20 21 22 23 24 25 26 27 28 29 30 31 32 33 34 35 36 37 38 39

000
FTUS43 KLOT 262000 AAC
TAFRFD
TAF AMD
KRFD 262004Z 2620/2718 17008KT 6SM BR SCT015 OVC025
      TEMPO 2622/2624 3SM -SN BR SCT007 OVC012
     FM270000 15005KT 6SM BR OVC008
     FM270700 04004KT 5SM BR OVC006
     FM271600 05007KT P6SM OVC015=

USA.gov is the U.S. government's official web portal to all federal, state and local government web resources and services.